• In Portugal
  • List of Countries
  • For 7 days
  • Water Temperature
  • Satellite Maps
  • Weather Map
  • Weather Widgets
  • user-avatar
    Login

    Hourly Weather Kavasaki

    Today, 16 November, Friday

    Time Temperature Precipitation Wind Pressure Humidity
    00:00 +11°C° 0 mm 1 mps 762 mmHg 66%
    01:00 +11°C° 0 mm 1 mps 762 mmHg 66%
    02:00 +11°C° 0 mm 1 mps 762 mmHg 66%
    03:00 +11°C° 0 mm 1 mps 762 mmHg 65%
    04:00 +10°C° 0 mm 1 mps 762 mmHg 65%
    05:00 +10°C° 0 mm 1 mps 762 mmHg 64%
    06:00 +10°C° 0 mm 1 mps 762 mmHg 64%
    07:00 +12°C° 0 mm 1 mps 762 mmHg 60%
    08:00 +13°C° 0 mm 1 mps 761 mmHg 55%
    09:00 +15°C° 0 mm 1 mps 761 mmHg 51%
    10:00 +16°C° 0 mm 1 mps 761 mmHg 50%
    11:00 +18°C° 0 mm 1 mps 760 mmHg 49%
    12:00 +19°C° 0 mm 1 mps 760 mmHg 48%
    13:00 +19°C° 0 mm 1 mps 760 mmHg 49%
    14:00 +19°C° 0 mm 1 mps 759 mmHg 49%
    15:00 +19°C° 0 mm 1 mps 759 mmHg 50%
    16:00 +18°C° 0 mm 1 mps 759 mmHg 54%
    17:00 +16°C° 0 mm 1 mps 759 mmHg 58%
    18:00 +15°C° 0 mm 1 mps 759 mmHg 62%
    19:00 +14°C° 0 mm 1 mps 759 mmHg 62%
    20:00 +14°C° 0 mm 1 mps 759 mmHg 63%
    21:00 +14°C° 0 mm 1 mps 759 mmHg 63%
    22:00 +14°C° 0 mm 1 mps 758 mmHg 62%
    23:00 +14°C° 0 mm 1 mps 758 mmHg 62%

    Tomorrow, 17 November, Saturday

    Time Temperature Precipitation Wind Pressure Humidity
    00:00 +14°C° 0 mm 1 mps 758 mmHg 61%
    01:00 +13°C° 0 mm 1 mps 758 mmHg 60%
    02:00 +13°C° 0 mm 1 mps 757 mmHg 60%
    03:00 +13°C° 0 mm 1 mps 757 mmHg 59%
    04:00 +13°C° 0 mm 1 mps 757 mmHg 59%
    05:00 +13°C° 0 mm 1 mps 757 mmHg 59%
    06:00 +13°C° 0 mm 1 mps 757 mmHg 60%
    07:00 +14°C° 0 mm 1 mps 757 mmHg 56%
    08:00 +15°C° 0 mm 2 mps 757 mmHg 53%
    09:00 +16°C° 0 mm 2 mps 757 mmHg 50%
    10:00 +17°C° 0 mm 2 mps 756 mmHg 49%
    11:00 +18°C° 0 mm 2 mps 756 mmHg 47%
    12:00 +19°C° 0 mm 3 mps 756 mmHg 46%
    13:00 +20°C° 0 mm 3 mps 755 mmHg 46%
    14:00 +20°C° 0 mm 3 mps 755 mmHg 46%
    15:00 +20°C° 0 mm 3 mps 755 mmHg 47%
    16:00 +18°C° 0 mm 3 mps 755 mmHg 52%
    17:00 +17°C° 0 mm 3 mps 756 mmHg 58%
    18:00 +15°C° 0 mm 2 mps 756 mmHg 63%
    19:00 +14°C° 0 mm 2 mps 757 mmHg 66%
    20:00 +14°C° 0 mm 2 mps 757 mmHg 69%
    21:00 +13°C° 0 mm 2 mps 757 mmHg 71%
    22:00 +13°C° 0 mm 2 mps 757 mmHg 72%
    23:00 +12°C° 0 mm 2 mps 758 mmHg 73%

    Day after tomorrow, 18 November, Sunday

    Time Temperature Precipitation Wind Pressure Humidity
    00:00 +12°C° 0 mm 2 mps 758 mmHg 74%
    01:00 +12°C° 0 mm 2 mps 758 mmHg 73%
    02:00 +12°C° 0 mm 2 mps 758 mmHg 73%
    03:00 +10°C° 0 mm 2 mps 758 mmHg 73%
    04:00 +10°C° 0 mm 2 mps 758 mmHg 72%
    05:00 +10°C° 0 mm 2 mps 758 mmHg 72%
    06:00 +10°C° 0 mm 2 mps 758 mmHg 71%
    07:00 +12°C° 0 mm 1 mps 759 mmHg 66%
    08:00 +14°C° 0 mm 1 mps 759 mmHg 60%
    09:00 +15°C° 0 mm 1 mps 759 mmHg 54%
    10:00 +18°C° 0 mm 1 mps 759 mmHg 47%
    11:00 +19°C° 0 mm 1 mps 758 mmHg 40%
    12:00 +20°C° 0 mm 1 mps 758 mmHg 33%
    13:00 +20°C° 0 mm 1 mps 758 mmHg 33%
    14:00 +20°C° 0 mm 1 mps 757 mmHg 32%
    15:00 +20°C° 0 mm 1 mps 757 mmHg 32%
    16:00 +19°C° 0 mm 1 mps 757 mmHg 36%
    17:00 +16°C° 0 mm 1 mps 758 mmHg 40%
    18:00 +15°C° 0 mm 1 mps 758 mmHg 44%
    19:00 +14°C° 0 mm 1 mps 758 mmHg 47%
    20:00 +14°C° 0 mm 1 mps 758 mmHg 49%
    21:00 +14°C° 0 mm 1 mps 759 mmHg 51%
    22:00 +14°C° 0 mm 1 mps 758 mmHg 52%
    23:00 +13°C° 0 mm 1 mps 758 mmHg 52%

    19 November, Monday

    Time Temperature Precipitation Wind Pressure Humidity
    00:00 +13°C° 0 mm 1 mps 758 mmHg 53%
    01:00 +13°C° 0 mm 1 mps 758 mmHg 53%
    02:00 +13°C° 0 mm 1 mps 757 mmHg 54%
    03:00 +14°C° 0 mm 1 mps 757 mmHg 54%
    04:00 +13°C° 0.2 mm 1 mps 758 mmHg 58%
    05:00 +13°C° 0.2 mm 1 mps 758 mmHg 63%
    06:00 +13°C° 0.2 mm 1 mps 758 mmHg 67%
    07:00 +14°C° 0.1 mm 1 mps 758 mmHg 68%
    08:00 +14°C° 0.1 mm 1 mps 758 mmHg 69%
    09:00 +15°C° 0.1 mm 1 mps 758 mmHg 70%
    10:00 +15°C° 0.1 mm 2 mps 758 mmHg 69%
    11:00 +16°C° 0.1 mm 2 mps 758 mmHg 68%
    12:00 +16°C° 0.1 mm 3 mps 757 mmHg 66%
    13:00 +16°C° 0.1 mm 3 mps 757 mmHg 65%
    14:00 +16°C° 0.1 mm 3 mps 757 mmHg 63%
    15:00 +16°C° 0.1 mm 3 mps 756 mmHg 62%
    16:00 +14°C° 0 mm 3 mps 757 mmHg 65%
    17:00 +13°C° 0 mm 3 mps 757 mmHg 69%
    18:00 +12°C° 0 mm 3 mps 758 mmHg 72%
    19:00 +12°C° 0 mm 3 mps 758 mmHg 73%
    20:00 +11°C° 0 mm 3 mps 758 mmHg 74%
    21:00 +11°C° 0 mm 3 mps 759 mmHg 75%
    22:00 +10°C° 0 mm 3 mps 759 mmHg 75%
    23:00 +10°C° 0 mm 3 mps 759 mmHg 75%

    20 November, Tuesday

    Time Temperature Precipitation Wind Pressure Humidity
    00:00 +9°C° 0 mm 3 mps 758 mmHg 75%
    01:00 +9°C° 0 mm 2 mps 759 mmHg 74%
    02:00 +9°C° 0 mm 2 mps 759 mmHg 73%
    03:00 +8°C° 0 mm 2 mps 759 mmHg 73%
    04:00 +8°C° 0 mm 2 mps 759 mmHg 72%
    05:00 +8°C° 0 mm 2 mps 760 mmHg 71%
    06:00 +8°C° 0 mm 2 mps 760 mmHg 70%
    07:00 +9°C° 0 mm 2 mps 760 mmHg 64%
    08:00 +10°C° 0 mm 2 mps 760 mmHg 57%
    09:00 +13°C° 0 mm 2 mps 761 mmHg 51%
    10:00 +14°C° 0 mm 2 mps 760 mmHg 46%
    11:00 +15°C° 0 mm 2 mps 760 mmHg 41%
    12:00 +16°C° 0 mm 2 mps 759 mmHg 35%
    13:00 +16°C° 0 mm 2 mps 759 mmHg 36%
    14:00 +16°C° 0 mm 2 mps 759 mmHg 36%
    15:00 +16°C° 0 mm 2 mps 760 mmHg 36%
    16:00 +15°C° 0 mm 2 mps 760 mmHg 40%
    17:00 +14°C° 0 mm 2 mps 760 mmHg 44%
    18:00 +13°C° 0 mm 2 mps 761 mmHg 47%
    19:00 +12°C° 0 mm 2 mps 761 mmHg 49%
    20:00 +12°C° 0 mm 2 mps 761 mmHg 51%
    21:00 +10°C° 0 mm 2 mps 761 mmHg 53%
    22:00 +10°C° 0 mm 2 mps 761 mmHg 53%
    23:00 +9°C° 0 mm 2 mps 761 mmHg 53%

    21 November, Wednesday

    Time Temperature Precipitation Wind Pressure Humidity
    00:00 +9°C° 0 mm 2 mps 761 mmHg 53%
    01:00 +10°C° 0 mm 1 mps 761 mmHg 54%
    02:00 +10°C° 0 mm 1 mps 761 mmHg 54%
    03:00 +9°C° 0 mm 1 mps 761 mmHg 54%
    04:00 +9°C° 0 mm 1 mps 761 mmHg 54%
    05:00 +9°C° 0 mm 1 mps 761 mmHg 55%
    06:00 +9°C° 0 mm 1 mps 761 mmHg 55%
    07:00 +11°C° 0 mm 1 mps 761 mmHg 52%
    08:00 +12°C° 0 mm 1 mps 761 mmHg 49%
    09:00 +14°C° 0 mm 1 mps 761 mmHg 46%
    10:00 +15°C° 0 mm 1 mps 760 mmHg 43%
    11:00 +16°C° 0 mm 1 mps 759 mmHg 40%
    12:00 +19°C° 0 mm 1 mps 759 mmHg 36%
    13:00 +18°C° 0 mm 1 mps 758 mmHg 38%
    14:00 +18°C° 0 mm 1 mps 758 mmHg 40%
    15:00 +18°C° 0 mm 1 mps 758 mmHg 41%
    16:00 +16°C° 0 mm 1 mps 758 mmHg 46%
    17:00 +14°C° 0 mm 1 mps 758 mmHg 51%
    18:00 +13°C° 0 mm 1 mps 759 mmHg 56%
    19:00 +13°C° 0 mm 1 mps 758 mmHg 58%
    20:00 +12°C° 0 mm 2 mps 758 mmHg 60%
    21:00 +12°C° 0 mm 2 mps 758 mmHg 62%
    22:00 +12°C° 0 mm 2 mps 758 mmHg 63%
    23:00 +12°C° 0 mm 2 mps 758 mmHg 64%
    Show more